Dryden Regional Airport
CYHD : now visible

Airfield :











YOU CAN JOIN US ON...

 
LOGIN :

Register | Disclaimer

   EN    FR    IT 

 









Legend :    VFR   Marginal VFR   IFR   Intensive IFR   Very Intensive IFR
Visi :
Ceiling :
>= 8 km
>= 3000ft
5 to 8 km
1000 to 3000 ft
1500m to 5 km
500 to 1000 ft
800 to 1500m
200 to 500 ft
< 800m
< 200 ft
Symbols :   Thunderstorms  Fog  Heavy snow  Heavy precipitations  Wind > 20 kt






- Airport Elevation : 1354 ft
- IATA code : YHD


CYHD - Dryden Regional

CURRENT METAR :
  • 290100Z AUTO 33003KT 290V020 9SM OVC035 M05/M09 A3006 RMK SLP207

EXPIRED METARs :
  • 290000Z AUTO 35005KT 310V020 9SM OVC035 M04/M09 A3003 RMK SLP197
  • 282300Z AUTO 33005KT 290V010 9SM OVC035 M04/M09 A3000 RMK SLP186

TAF TAF CYHD
Valid from the 29 at 02:00 until the 29 at 14:00 UTC


290138Z 2902/2914 35008KT P6SM BKN030
TEMPO 2902/2908 P6SM -SN OVC020
FM290800 VRB03KT P6SM SCT030 RMK FCST BASED ON AUTO OBS. NXT FCST BY 290800Z
CZWG FIR / North America



MET'MAP, your aeronautical weather chart ! - Copyright ORBIFLY December 2007 - Disclaimer

ORBIFLY MET'MAP TEAM :

Programming & Development : Alexandra Zaïnal
Concept & original design : Baudouin d'Aumeries
Assistance for programming : Marc-Olivier Méhu
Technical & hardware support : Manuel Goepfert

Contact : metmap@orbifly.com




SOURCES & CREDITS :

   NOAA       Earth
Advisory